Location: River House Observatory
(37.8577°N, 76.3548°W)
Time: 01:36:04
(UTC-04:00)

NOSS 3-1 (C) - Visible Passes

Search period start: 22 August 2017 00:00
Search period end: 01 September 2017 00:00
Orbit: 825 x 1384 km, 63.4° (Epoch: 16 August)

Date Brightness Start Highest point End Pass type
(mag) Time Alt. Az. Time Alt. Az. Time Alt. Az.
22 Aug 6.6 01:01:29 10° N 01:03:45 11° NNE 01:06:06 10° NE visible
22 Aug 5.3 02:50:01 10° NNW 02:56:58 38° NE 03:04:34 10° ESE visible
22 Aug 4.1 04:40:39 10° NW 04:48:14 55° WSW 04:56:26 10° S visible
22 Aug 5.8 20:23:50 10° W 20:28:39 25° NW 20:33:56 10° NNE visible
23 Aug 5.7 02:05:05 10° NNW 02:11:15 26° NE 02:17:54 10° E visible
23 Aug 4.0 03:55:13 10° NW 04:02:59 83° WSW 04:11:28 10° SSE visible
23 Aug 5.3 05:48:30 10° WNW 05:53:09 17° WSW 05:57:58 10° SW visible
23 Aug 6.5 21:34:59 10° NNW 21:36:02 10° NNW 21:37:07 10° NNW visible
24 Aug 6.1 01:20:18 10° N 01:25:21 19° NE 01:30:42 10° ENE visible
24 Aug 4.3 03:09:57 10° NNW 03:17:37 68° NE 03:26:01 10° SE visible
24 Aug 4.8 05:01:47 10° NW 05:08:12 28° WSW 05:15:01 10° SSW visible
24 Aug 6.2 20:46:39 10° WNW 20:49:53 14° NNW 20:53:19 10° N visible
25 Aug 6.4 00:35:46 10° N 00:39:15 14° NNE 00:42:53 10° ENE visible
25 Aug 4.8 02:24:51 10° NNW 02:32:08 46° NE 02:40:05 10° ESE visible
25 Aug 4.3 04:15:49 10° NW 04:23:08 44° WSW 04:31:00 10° S visible
26 Aug 5.4 01:39:52 10° NNW 01:46:29 32° NE 01:50:17 22° E visible
26 Aug 4.0 03:30:15 10° NW 03:37:27 66° W 03:37:27 66° W visible
27 Aug 5.8 00:54:59 10° N 01:00:41 23° NE 01:04:05 18° ENE visible
27 Aug 4.2 02:44:54 10° NNW 02:51:20 66° NNW 02:51:20 66° NNW visible
27 Aug 5.7 04:37:23 10° WNW 04:38:35 14° WNW 04:38:35 14° WNW visible
27 Aug 6.3 20:23:00 10° NW 20:25:19 12° NNW 20:27:44 10° N visible
28 Aug 6.1 00:10:18 10° N 00:14:41 16° NNE 00:18:40 11° ENE visible
28 Aug 4.6 01:59:43 10° NNW 02:05:57 52° NNE 02:05:57 52° NNE visible
28 Aug 5.5 03:51:06 10° NW 03:53:15 19° WNW 03:53:15 19° WNW visible
28 Aug 6.3 23:26:00 10° N 23:28:31 12° NNE 23:31:07 10° NE visible
29 Aug 5.1 01:14:40 10° NNW 01:20:57 38° NE 01:20:57 38° NE visible
29 Aug 5.4 03:05:21 10° NW 03:08:16 25° NW 03:08:16 25° NW visible
30 Aug 5.5 00:29:44 10° NNW 00:35:58 27° NE 00:36:10 27° NE visible
30 Aug 5.2 02:19:53 10° NW 02:23:30 32° NW 02:23:30 32° NW visible
30 Aug 6.4 20:00:18 10° NNW 20:00:48 10° NNW 20:01:19 10° NNW visible
30 Aug 5.8 23:44:56 10° N 23:50:04 19° NE 23:51:34 19° NE visible
31 Aug 5.1 01:34:37 10° NNW 01:38:54 38° NNW 01:38:54 38° NNW visible
31 Aug 6.1 23:00:22 10° N 23:04:01 14° NNE 23:07:04 11° NE visible
